星链-6048 (STARLINK-6048 )

导读 | 星芒AI

STARLINK-6048 是 SpaceX 星链计划中的一颗低轨通信卫星,属于第6048组发射任务的一部分。该卫星旨在为全球用户提供高速互联网服务,尤其关注网络覆盖不足的地区。它运行在约550公里高的近地轨道,具备先进的通信技术和自动避撞功能,以确保运行安全。作为星链星座的一部分,STARLINK-6048 有助于提升全球互联网连接的稳定性和速度。

基本信息
目录编号:
56459
目录名称:
STARLINK-6048
国际标识:
2023-064M
轨道中心:
EARTH
卫星名称:
星链-6048
卫星全名:
星链-6048 (STARLINK-6048 )
卫星状态:
在轨 (已飞行909 天)
发射日期:
2023-05-10 UTC
国别 :
美国 (US)
星等 :
--
轨道信息
数据来源 国际轨道数据 AOE轨道数据
星历时间 2025-11-03T19:24:45+0800
19小时前
查看轨道信息
2025-11-02T08:00:00+0800
2天前
查看轨道信息
半长轴 6950.161km 6950.17km
偏心率 0.0003568 0.0002955
轨道倾角 69.997° 69.998°
近地点辐角 278.250° 269.939°
升交点赤经 102.554° 106.274°
平近点角 81.825° 53.429°
近地点 569.546km 569.981km
远地点 574.506km 574.089km
周期 96.106分钟 96.107分钟
每日圈数 14.983404 14.983375
详细信息
固有亮度:
5
最大亮度:
2.5
卫星平台:
Starlink v1.5
覆盖范围:
全球
运营商:
太空探索技术公司
运营商所在国:
美国
制造商(研发单位):
太空探索技术公司
制造商所在国:
美国
使用方式:
暂无
卫星简介
星链(Starlink)计划是由太空探索技术公司(SpaceX)提出的一个巨型低轨卫星互联网星座项目,计划在2019年至2024年间在太空搭建由约1.2万颗卫星组成的“星链”网络,其中1584颗将部署在地球上空550千米处的近地轨道,并从2020年开始工作。该卫星仍在工作。
2D轨道图
3D轨道图
轨道高度分析图
轨道倾角分析图
轨道综合分析图
查看轨道综合分析图